Terminal Aerodrome Forecast
Issued by NWS Sioux Falls, SD

Home | Current Version | Previous Version | Graphics & Text | Print | Product List | Glossary On
Versions: 1 2 3 4 5 6 7 8 9 10 11 12 13 14 15 16 17 18
000
FTUS43 KFSD 271736
TAFFSD
TAF
KFSD 271736Z 2718/2818 28006KT P6SM FEW250
     FM272000 VRB05KT P6SM FEW070
     FM272300 18007KT P6SM FEW080
     FM281000 17009KT P6SM SCT060 BKN200
     FM281500 18013G20KT P6SM SCT040 BKN100=

USA.gov is the U.S. government's official web portal to all federal, state and local government web resources and services.